"Pseudo-MPEC" for P11OuZk

Created 2023 Nov 21 16:22:09 UT using Find_Orb

Click here for an explanation of pseudo-MPECs

 
 Astrometry: 
     P11OuZk  C2023 11 18T-l[wV?#ClxYFS*d'bGBUQb'i2Astrometry6(X*6?Qr-ksP^rc^F51
     P11OuZk  C2023 11 18%H-0A.SP_oWN'G19,GX]sOj?u#N^;T,=aq8o$h.sy6TGGGSIYjB.F51
     P11OuZk  C2023 11 18Za1U9nYmQ.Ki#OXe1redacted;0X#WeL7/Iyj0dy)$mbqHms]]#oF51
     P11OuZk* C2023 11 20#%Y69\GXc^h28Xvclick1%ZYB,'5fTrIWg]n_M-Bt?+3-qK?m'QsF51
     P11OuZk  C2023 11 20bd;nk*ZE#]#jd:8IgyE;?*NL!ylI[wBwa7E,AY+xpbCZ[^C5]_ThF51
     P11OuZk  C2023 11 203ZCglHWhyYD$U#0Ssrv.u2FrG)WUKk5o2;4M*3lc1JrhZL;-I\4IF51
     P11OuZk 1C2023 11 21T5-2jXWZ'iPwW#[jIxUtqCTC^aEherebC41RIrdn+uNfd$cu'D?QW87
     P11OuZk 1C2023 11 21wtKn=YkUuj=r$)J(!hv,cJs'N6U5A`2oeZfEKBt;_ltB=D_x*IHWW87
     P11OuZk 1C2023 11 21PPnS_)NFoD1O00,*oFQiforhnEfexplanationSCqVEN-Ov:5%B5W87
     P11OuZk 1C2023 11 21tfIQ1#]os)FLnb8_cX_8e44YIn8BB9FMJIesvH@mt4Ug6nPoSh4hW87

Station data:
(F51) Pan-STARRS 1, Haleakala  (N20.707234 W156.255910)  US/Hawaii.
   Observers J. Bulger, T. Lowe, A. Schultz, M. Willman. Measurers K.
   Chambers, S. Chastel, T. de Boer, L. Denneau, J. Fairlamb, H. Flewelling,
   M. Huber, C.-C. Lin, E. Magnier, Y. Ramanjooloo, R. Wainscoat, R. Weryk.
   1.8-m Ritchey-Chrétien + CCD.
(W87) Cerro Tololo-LCO C  (S30.167454 W70.804680)  Chile.  Observer J. D.
   Armstrong. Measurer T. Lister. 1.0-m f/8.0 Ritchey-Chrétien + CCD.

Orbital elements:  P11OuZk
   Perihelion 2023 Sep 9.02114 +/- 8.28 TT =  0:30:26 (JD 2460196.52114)
Epoch 2023 Nov 21.0 TT = JDT 2460269.5   Earth MOID: 0.7515      AutoNEOCP
M  28.97275440 +/- 3.3              (J2000 ecliptic)
n   0.39700202 +/- 0.00221          Peri.  277.95146 +/- 5.3
a   1.83347180 +/- 0.00682          Node   108.58364 +/- 0.6
e   0.1171436 +/- 0.00799           Incl.   24.62536 +/- 0.46
P   2.48/906.78d           H 19.56  G  0.15   U  8.7
q 1.61869229 +/- 0.0191    Q 2.04825130 +/- 0.0114
From 10 observations 2023 Nov. 18-21; mean residual 0".04
Residuals in arcseconds: 
231118 F51  .02+  .02+    231120 F51  .04-  .03+    231121 W87  .06+  .00     
231118 F51  .04-  .06-    231120 F51  .02-  .07-    231121 W87  .02+  .04-    
231118 F51  .01+  .03+    231121 W87  .03-  .02-    
231120 F51  .06+  .05+    231121 W87  .06-  .04+    

Ephemerides (geocentric):
Date (UTC) HH   RA             Dec           delta  r     elong  mag " sig PA
---- --------  ------------   ------------  ------ ------ -----  --- --------
2023 11 21 16  05 20 20.013   -15 40 02.29  .78357 1.6531 137.6 21.2 .309  56
2023 11 21 17  05 20 16.873   -15 39 37.93  .78345 1.6531 137.6 21.2 .326  56
2023 11 21 18  05 20 13.730   -15 39 13.49  .78333 1.6532 137.6 21.2 .344  57
2023 11 21 19  05 20 10.583   -15 38 48.98  .78321 1.6532 137.7 21.2 .362  58
2023 11 21 20  05 20 07.432   -15 38 24.39  .78309 1.6532 137.7 21.2 .380  58
2023 11 21 21  05 20 04.278   -15 37 59.74  .78297 1.6533 137.7 21.2 .399  59
2023 11 21 22  05 20 01.121   -15 37 35.01  .78285 1.6533 137.7 21.2 .419  59
2023 11 21 23  05 19 57.960   -15 37 10.22  .78273 1.6534 137.8 21.2 .439  60
2023 11 22 00  05 19 54.795   -15 36 45.35  .78261 1.6534 137.8 21.2 .459  60
2023 11 22 01  05 19 51.627   -15 36 20.40  .78249 1.6534 137.8 21.2 .480  61
2023 11 22 02  05 19 48.455   -15 35 55.39  .78237 1.6535 137.9 21.2 .501  61
2023 11 22 03  05 19 45.280   -15 35 30.31  .78225 1.6535 137.9 21.2 .523  61
2023 11 22 04  05 19 42.102   -15 35 05.15  .78213 1.6535 137.9 21.2 .545  62
2023 11 22 05  05 19 38.920   -15 34 39.92  .78201 1.6536 137.9 21.2 .567  62
2023 11 22 06  05 19 35.735   -15 34 14.62  .78190 1.6536 138.0 21.2 .591  62
2023 11 22 07  05 19 32.546   -15 33 49.25  .78178 1.6537 138.0 21.2 .614  63
2023 11 22 08  05 19 29.354   -15 33 23.80  .78166 1.6537 138.0 21.2 .638  63
2023 11 22 09  05 19 26.158   -15 32 58.29  .78154 1.6537 138.1 21.2 .662  63
2023 11 22 10  05 19 22.959   -15 32 32.70  .78143 1.6538 138.1 21.2 .687  64
2023 11 22 11  05 19 19.756   -15 32 07.04  .78131 1.6538 138.1 21.2 .712  64
2023 11 22 12  05 19 16.551   -15 31 41.30  .78119 1.6538 138.1 21.2 .738  64
2023 11 22 13  05 19 13.341   -15 31 15.50  .78108 1.6539 138.2 21.2 .764  64
2023 11 22 14  05 19 10.129   -15 30 49.62  .78096 1.6539 138.2 21.2 .791  65
2023 11 22 15  05 19 06.913   -15 30 23.67  .78084 1.6540 138.2 21.2 .818  65
2023 11 22 16  05 19 03.693   -15 29 57.65  .78073 1.6540 138.3 21.2 .846  65
2023 11 22 17  05 19 00.471   -15 29 31.55  .78061 1.6540 138.3 21.2 .874  65
2023 11 22 18  05 18 57.244   -15 29 05.39  .78050 1.6541 138.3 21.2 .902  66
2023 11 22 19  05 18 54.015   -15 28 39.15  .78038 1.6541 138.3 21.2 .931  66
2023 11 22 20  05 18 50.782   -15 28 12.84  .78027 1.6541 138.4 21.2 .960  66
2023 11 22 21  05 18 47.546   -15 27 46.45  .78016 1.6542 138.4 21.2 0.99  66
2023 11 22 22  05 18 44.307   -15 27 20.00  .78004 1.6542 138.4 21.2 1.02  66
2023 11 22 23  05 18 41.064   -15 26 53.47  .77993 1.6543 138.4 21.2 1.05  67
2023 11 23 00  05 18 37.818   -15 26 26.87  .77981 1.6543 138.5 21.2 1.08  67
2023 11 23 01  05 18 34.569   -15 26 00.19  .77970 1.6543 138.5 21.2 1.11  67
2023 11 23 02  05 18 31.316   -15 25 33.45  .77959 1.6544 138.5 21.2 1.15  67
2023 11 23 03  05 18 28.060   -15 25 06.63  .77948 1.6544 138.6 21.2 1.18  67
2023 11 23 04  05 18 24.801   -15 24 39.74  .77936 1.6545 138.6 21.2 1.21  68
2023 11 23 05  05 18 21.539   -15 24 12.77  .77925 1.6545 138.6 21.2 1.25  68
2023 11 23 06  05 18 18.273   -15 23 45.73  .77914 1.6545 138.6 21.2 1.28  68
2023 11 23 07  05 18 15.004   -15 23 18.62  .77903 1.6546 138.7 21.2 1.32  68
2023 11 23 08  05 18 11.732   -15 22 51.44  .77892 1.6546 138.7 21.2 1.35  68
2023 11 23 09  05 18 08.457   -15 22 24.19  .77881 1.6546 138.7 21.2 1.39  68
2023 11 23 10  05 18 05.178   -15 21 56.86  .77870 1.6547 138.8 21.2 1.42  69
2023 11 23 11  05 18 01.896   -15 21 29.46  .77859 1.6547 138.8 21.2 1.46  69
2023 11 23 12  05 17 58.611   -15 21 01.98  .77848 1.6548 138.8 21.2 1.50  69
2023 11 23 13  05 17 55.323   -15 20 34.44  .77837 1.6548 138.8 21.2 1.53  69
2023 11 23 14  05 17 52.032   -15 20 06.82  .77826 1.6548 138.9 21.2 1.57  69
2023 11 23 15  05 17 48.737   -15 19 39.13  .77815 1.6549 138.9 21.2 1.61  69